Wind_Speed
30 27 28 27 26 23 22 21 24 23 27 27 32 28 25 11 13 38 51 44 43 45 47 44 49 50 54 56 58 58 60 57 43 43 45 49 52 55 57 63 66 69 64 59
23 26 28 29 27 25 24 24 24 22 22 21 18 39 28 16 25 49 45 48 41 44 48 50 50 54 56 58 58 59 51 41 40 45 50 53 57 59 63 65 66 59 54 53
27 28 28 28 30 31 25 21 17 15 16 16 10 36 30 6 24 39 17 22 52 49 50 51 55 56 56 57 58 50 38 39 43 48 54 58 60 61 66 71 66 51 54 59
26 26 27 28 30 27 23 19 18 17 10 2 9 18 12 15 4 18 33 40 49 51 54 54 55 55 57 53 48 35 38 41 47 52 56 58 59 61 67 70 60 63 62 63
25 25 27 25 29 32 25 20 17 6 12 13 9 11 16 20 27 38 46 42 56 59 56 54 54 57 52 46 33 35 38 44 49 53 55 59 63 66 72 68 69 69 65 62
24 25 25 24 27 31 33 22 21 19 15 12 17 9 8 31 31 41 46 58 60 55 49 52 54 52 48 35 34 37 41 46 52 55 56 60 64 68 74 71 76 75 67 60
23 22 25 22 25 30 32 32 18 14 13 8 15 14 24 29 30 38 43 47 48 45 47 52 52 46 35 34 36 40 45 50 54 57 58 63 66 71 73 75 82 78 65 57
25 21 26 22 23 27 30 33 31 19 13 11 13 18 19 30 38 38 47 43 43 46 50 51 48 37 32 34 38 44 49 53 56 58 58 62 67 73 73 78 86 77 64 53
25 25 24 23 23 26 29 32 34 26 18 15 15 11 21 33 33 29 34 38 43 47 50 49 40 33 31 34 40 43 48 53 58 57 57 62 68 72 74 79 87 83 68 56
24 24 25 24 25 25 29 33 35 30 24 19 17 14 18 27 33 34 37 39 44 46 44 42 36 32 33 36 40 44 47 53 59 62 59 63 68 72 75 77 86 89 72 59
28 23 25 23 26 27 27 32 35 34 27 23 20 26 29 32 35 36 40 41 42 42 42 39 33 32 34 37 41 44 48 53 58 64 63 63 67 72 76 76 84 89 79 64
28 22 20 20 27 27 26 31 32 33 30 25 26 27 31 31 38 45 45 45 45 45 42 41 35 33 34 37 41 44 48 53 55 61 66 64 66 72 74 76 79 85 88 78
24 20 17 19 26 28 29 31 32 33 31 30 26 27 30 38 41 47 50 47 51 50 46 43 39 36 35 36 40 44 47 51 55 59 63 68 67 70 75 75 76 80 86 87
27 21 13 19 25 30 28 31 31 31 30 31 31 28 32 35 38 43 49 55 59 61 54 45 42 38 36 36 39 43 46 49 52 57 62 67 70 69 73 75 76 76 81 86
33 20 16 18 23 31 30 29 31 31 30 33 35 34 35 35 31 38 48 56 56 58 67 55 46 43 39 37 38 41 45 48 51 55 59 64 68 71 70 74 74 76 76 81
37 21 19 19 20 27 32 32 31 29 29 29 32 36 38 39 38 38 48 52 52 57 62 71 57 46 43 39 39 41 44 47 49 53 57 62 66 69 71 71 73 73 74 74
35 33 21 20 21 30 35 33 32 30 30 29 31 34 35 36 41 43 46 51 49 55 64 65 71 55 46 45 43 41 43 45 48 51 54 59 63 66 69 69 70 71 71 72
38 37 26 20 21 30 36 35 32 33 30 29 30 33 37 42 40 44 45 52 47 53 58 64 67 70 54 47 46 45 43 44 47 50 52 56 60 63 65 69 68 69 69 70
40 39 31 22 23 31 37 34 33 35 34 30 26 29 36 42 46 49 46 52 56 59 55 59 65 70 66 52 47 47 47 46 46 48 50 53 57 59 61 65 67 66 65 65
38 40 41 32 25 28 33 35 32 34 35 30 25 26 33 38 45 48 50 51 55 59 61 62 65 69 69 58 49 48 48 49 49 48 48 50 53 56 58 59 65 65 62 63
45 47 43 42 28 30 31 34 30 33 36 34 28 29 30 38 44 49 53 54 55 53 59 64 64 66 67 66 53 50 50 50 52 51 49 48 50 53 55 55 59 63 62 60
35 36 38 46 38 31 28 35 30 31 35 37 41 38 37 40 42 47 53 57 57 54 59 63 66 67 62 65 63 55 52 50 52 54 52 49 49 51 52 52 55 58 60 59
47 46 46 43 35 31 35 30 32 31 34 35 37 40 47 47 48 51 56 59 58 57 62 62 64 65 62 63 65 63 55 51 51 53 53 50 49 49 48 49 52 56 58 56
50 50 53 57 48 38 42 31 31 32 36 40 38 40 43 43 45 52 55 56 60 61 61 66 59 61 64 60 65 65 61 54 53 55 53 51 48 48 47 47 50 54 56 54
50 46 47 49 44 40 42 36 31 36 39 39 41 41 42 41 43 47 47 49 57 59 62 68 58 58 67 62 65 69 68 65 58 56 54 50 47 45 45 47 51 54 54 52
49 45 50 50 44 41 36 41 38 38 36 36 39 45 44 48 50 53 49 49 55 56 60 61 59 58 68 66 66 69 72 70 65 57 52 48 44 44 45 47 51 53 53 51
Wind_Direction
357 3 358 10 13 9 1 351 338 350 356 356 12 355 333 25 165 307 326 327 333 327 325 326 322 318 317 315 315 316 319 321 324 326 323 323 322 321 319 318 314 307 304 299
353 6 4 8 4 5 359 357 345 353 354 6 322 358 1 5 253 307 317 330 324 324 323 322 320 320 319 318 320 322 324 328 332 330 328 329 327 326 323 323 319 316 310 305
353 0 3 6 3 357 354 358 347 341 356 352 20 315 316 283 304 309 359 303 315 323 318 317 320 320 320 322 324 327 332 337 334 335 336 333 331 328 327 330 327 322 315 307
355 360 0 360 2 354 351 346 351 12 36 27 306 289 308 309 253 297 312 306 313 313 313 319 321 322 324 327 328 335 339 339 341 341 338 336 334 332 333 334 330 326 319 309
349 355 356 355 360 3 357 353 345 18 346 331 284 305 303 285 281 284 298 298 309 311 317 322 325 326 329 332 336 340 341 343 343 340 339 339 340 339 340 339 336 329 321 310
347 350 352 346 356 1 4 3 339 338 325 298 306 324 301 283 268 272 280 293 301 310 321 326 329 330 332 339 342 343 346 346 345 342 342 344 345 343 345 343 340 336 329 323
342 343 348 341 351 0 1 1 341 316 311 311 294 291 279 283 285 287 287 300 310 320 325 331 333 333 338 344 348 347 351 351 347 345 346 348 348 349 350 349 347 345 340 335
337 337 341 342 345 350 354 355 353 328 319 318 311 318 305 316 314 309 310 315 322 325 328 332 334 337 345 348 352 353 353 351 349 348 351 351 352 354 354 353 354 353 351 348
327 334 339 338 329 337 350 354 358 349 341 341 317 300 304 316 321 341 335 328 326 328 330 334 336 341 346 350 353 355 355 355 355 352 352 354 356 357 357 358 1 0 359 359
313 332 333 333 327 332 344 349 358 359 350 341 318 324 315 332 337 332 330 331 331 331 336 338 338 343 350 351 353 355 356 356 358 358 357 359 359 359 1 0 5 7 5 6
306 318 325 330 329 335 339 347 358 359 357 349 333 338 332 339 344 348 348 347 345 345 343 342 340 347 351 352 352 353 354 355 358 1 0 1 1 2 5 3 7 10 12 14
302 303 316 326 330 334 338 347 350 357 2 352 341 344 351 0 9 10 1 355 354 350 348 347 342 343 350 350 351 350 352 355 359 359 4 3 3 3 6 7 8 12 16 19
292 293 306 322 326 337 333 343 347 1 9 8 7 9 9 7 6 7 7 3 1 358 354 352 345 343 347 349 348 349 349 355 357 1 2 5 5 5 6 9 9 11 15 20
292 279 288 316 325 333 332 337 343 350 359 9 12 10 6 2 2 4 10 10 10 11 1 354 351 345 344 346 346 348 348 352 356 359 2 4 6 5 6 8 11 11 14 18
282 271 282 307 317 320 331 331 334 341 356 1 7 9 9 9 2 0 1 1 8 8 10 2 353 351 346 342 343 345 347 349 353 356 359 1 4 6 7 9 10 13 12 16
278 263 272 291 311 323 333 326 329 340 355 4 3 5 3 358 355 352 356 358 6 8 6 9 1 352 349 344 339 341 344 346 351 353 356 359 1 5 8 9 10 11 13 14
276 272 272 284 307 319 321 326 328 330 348 353 0 1 360 357 358 354 354 354 2 8 7 6 8 359 351 350 346 339 340 344 347 350 354 356 359 2 6 9 10 11 12 13
261 269 278 280 303 312 313 319 325 317 332 340 349 357 359 357 354 355 351 353 355 2 4 5 3 5 355 350 350 347 342 342 343 345 350 354 357 0 3 8 9 10 11 13
258 274 266 278 295 304 310 315 318 314 318 328 340 350 357 355 357 355 353 351 355 352 359 1 0 1 360 351 349 350 349 344 342 342 345 350 354 357 2 5 9 9 10 11
251 269 267 267 277 293 299 308 316 316 313 314 323 336 347 350 348 349 350 349 348 348 349 352 357 1 360 354 348 348 350 349 347 344 344 347 352 355 359 3 6 8 8 9
250 257 271 267 272 288 288 297 310 313 312 309 312 314 330 341 343 345 347 344 346 343 345 348 349 353 358 359 351 347 348 347 347 346 344 346 350 353 356 0 5 6 6 7
245 244 258 269 268 287 279 296 298 304 309 313 313 313 313 323 331 337 339 338 339 344 341 345 348 348 356 360 356 350 348 346 346 347 346 346 348 351 353 358 2 5 4 4
251 263 266 270 269 282 294 289 297 297 307 308 315 322 321 321 320 329 335 332 334 334 338 340 347 340 348 357 355 354 348 344 344 346 346 346 348 349 353 357 0 2 4 1
243 251 263 269 267 281 291 282 289 301 314 307 310 316 318 327 324 329 325 329 332 333 335 338 339 337 342 352 352 352 350 343 340 341 343 346 347 350 351 353 356 359 0 0
239 251 263 263 270 278 281 277 291 302 306 304 302 312 312 311 317 317 325 332 328 330 331 333 333 333 338 344 349 348 347 346 340 339 340 343 346 344 346 348 352 354 356 358
237 253 258 262 267 271 281 279 291 293 290 295 306 314 310 313 318 316 318 328 329 330 333 334 330 331 335 338 341 344 345 344 342 340 341 340 341 342 342 344 347 349 351 353
Height
10930 10927 10923 10920 10913 10912 10907 10905 10901 10898 10896 10898 10895 10891 10889 10899 10892 10885 10875 10867 10858 10852 10845 10841 10832 10825 10816 10805 10795 10784 10771 10760 10752 10744 10734 10725 10714 10706 10697 10685 10669 10651 10641 10629
10934 10927 10922 10917 10914 10910 10907 10904 10900 10897 10898 10895 10893 10894 10882 10891 10900 10874 10870 10867 10856 10849 10840 10832 10827 10816 10806 10794 10784 10773 10762 10751 10745 10735 10725 10714 10702 10689 10675 10666 10650 10633 10617 10610
10930 10927 10922 10919 10913 10907 10905 10902 10899 10899 10896 10896 10896 10895 10886 10877 10872 10863 10874 10859 10851 10841 10837 10830 10819 10809 10800 10785 10773 10764 10755 10746 10737 10728 10715 10702 10690 10676 10660 10643 10627 10617 10607 10592
10932 10928 10923 10920 10916 10912 10906 10902 10899 10898 10894 10892 10892 10893 10887 10880 10872 10847 10854 10855 10846 10841 10833 10822 10811 10802 10790 10780 10767 10758 10749 10740 10730 10718 10707 10695 10682 10668 10650 10631 10614 10601 10590 10570
10930 10927 10924 10920 10917 10912 10907 10902 10897 10898 10897 10892 10890 10892 10891 10881 10872 10863 10847 10845 10842 10834 10824 10813 10804 10791 10781 10773 10764 10754 10746 10736 10725 10713 10701 10687 10670 10654 10637 10617 10600 10582 10566 10549
10929 10926 10924 10920 10916 10912 10907 10904 10897 10894 10892 10890 10891 10893 10894 10880 10874 10867 10855 10846 10839 10833 10820 10808 10797 10784 10774 10767 10758 10750 10741 10730 10719 10706 10693 10678 10662 10645 10625 10606 10586 10563 10540 10523
10930 10927 10923 10919 10916 10910 10907 10904 10899 10892 10890 10892 10889 10884 10882 10876 10870 10863 10856 10847 10835 10823 10812 10802 10790 10780 10771 10762 10754 10745 10735 10725 10713 10700 10685 10669 10654 10636 10616 10595 10572 10546 10523 10505
10928 10927 10921 10918 10914 10912 10908 10903 10896 10890 10888 10887 10883 10876 10870 10862 10857 10852 10844 10835 10826 10815 10804 10795 10784 10776 10767 10759 10751 10740 10730 10720 10709 10694 10680 10665 10649 10630 10610 10590 10564 10537 10514 10496
10927 10924 10921 10918 10914 10912 10908 10903 10896 10888 10885 10881 10878 10874 10868 10861 10854 10847 10838 10831 10820 10811 10800 10789 10780 10772 10765 10756 10747 10739 10730 10717 10705 10693 10678 10662 10645 10627 10607 10586 10562 10532 10509 10492
10924 10922 10920 10917 10913 10910 10905 10901 10895 10888 10882 10879 10876 10875 10869 10861 10852 10846 10839 10830 10818 10806 10796 10785 10777 10770 10761 10753 10745 10736 10727 10715 10703 10688 10675 10659 10643 10626 10605 10585 10562 10535 10511 10492
10920 10919 10918 10914 10911 10907 10903 10899 10893 10886 10880 10874 10869 10864 10859 10856 10850 10840 10830 10821 10812 10802 10791 10782 10775 10767 10759 10750 10742 10733 10723 10713 10700 10688 10672 10657 10642 10625 10606 10586 10566 10543 10519 10498
10916 10915 10913 10911 10907 10905 10901 10897 10892 10887 10879 10873 10867 10862 10857 10852 10844 10835 10827 10817 10807 10797 10789 10780 10771 10764 10756 10747 10739 10730 10721 10711 10701 10686 10673 10658 10642 10626 10608 10590 10570 10550 10529 10507
10911 10912 10909 10908 10905 10902 10898 10894 10888 10882 10877 10872 10867 10861 10856 10847 10840 10834 10825 10816 10805 10795 10786 10777 10768 10760 10752 10744 10736 10727 10719 10709 10697 10686 10672 10658 10642 10627 10610 10593 10574 10557 10538 10519
10907 10907 10906 10903 10901 10899 10896 10893 10887 10883 10878 10872 10867 10863 10857 10850 10843 10835 10827 10816 10806 10796 10784 10775 10766 10758 10750 10741 10733 10725 10716 10707 10696 10685 10672 10659 10644 10629 10613 10596 10579 10562 10546 10529
10903 10903 10902 10900 10899 10897 10894 10891 10888 10882 10875 10869 10863 10858 10854 10850 10846 10835 10825 10815 10805 10795 10785 10773 10763 10755 10747 10739 10731 10723 10714 10704 10694 10683 10672 10660 10647 10632 10616 10599 10582 10567 10553 10538
10898 10897 10897 10895 10894 10893 10891 10888 10884 10879 10873 10867 10861 10856 10850 10843 10837 10831 10823 10813 10804 10795 10785 10774 10762 10754 10745 10737 10728 10720 10712 10702 10692 10682 10671 10659 10647 10634 10619 10603 10588 10574 10560 10546
10897 10894 10892 10891 10890 10888 10888 10885 10881 10876 10870 10865 10861 10856 10850 10845 10837 10828 10820 10813 10804 10794 10784 10774 10763 10752 10743 10735 10726 10718 10709 10700 10690 10681 10671 10660 10648 10635 10623 10608 10593 10580 10566 10552
10891 10890 10887 10887 10886 10884 10884 10881 10878 10873 10869 10863 10857 10851 10847 10842 10836 10830 10821 10812 10803 10794 10784 10774 10764 10753 10742 10733 10725 10716 10707 10698 10689 10679 10670 10660 10649 10638 10625 10612 10598 10585 10572 10559
10885 10886 10883 10881 10880 10879 10879 10877 10873 10869 10865 10859 10854 10849 10844 10839 10832 10825 10817 10810 10802 10792 10783 10773 10764 10753 10742 10732 10723 10714 10705 10696 10687 10678 10669 10660 10650 10639 10627 10615 10602 10590 10579 10567
10876 10878 10876 10876 10874 10874 10871 10871 10869 10865 10861 10855 10850 10845 10841 10835 10830 10823 10815 10807 10800 10791 10782 10772 10762 10751 10741 10730 10722 10713 10704 10695 10686 10677 10668 10659 10650 10640 10629 10618 10606 10594 10583 10572
10867 10867 10870 10870 10870 10870 10864 10864 10863 10860 10857 10852 10847 10841 10836 10831 10825 10819 10813 10805 10798 10790 10781 10771 10761 10751 10740 10730 10720 10712 10703 10695 10686 10676 10667 10658 10649 10640 10630 10620 10610 10598 10587 10577
10856 10858 10861 10864 10864 10864 10862 10858 10856 10853 10851 10848 10842 10838 10833 10827 10821 10815 10809 10803 10796 10787 10778 10769 10759 10749 10740 10729 10720 10711 10702 10693 10684 10675 10666 10657 10649 10640 10631 10622 10612 10602 10591 10581
10849 10851 10853 10857 10856 10857 10857 10855 10849 10846 10845 10843 10838 10833 10828 10823 10818 10812 10805 10799 10791 10783 10775 10765 10756 10747 10739 10728 10719 10711 10702 10691 10682 10673 10665 10656 10647 10640 10631 10623 10614 10604 10594 10585
10841 10849 10848 10849 10849 10852 10851 10850 10844 10840 10838 10835 10833 10828 10823 10817 10813 10808 10800 10793 10785 10777 10769 10762 10753 10743 10735 10725 10716 10708 10700 10691 10681 10672 10663 10654 10647 10638 10630 10623 10616 10607 10597 10589
10837 10839 10841 10840 10841 10843 10844 10842 10840 10835 10830 10828 10825 10821 10816 10812 10807 10801 10795 10789 10781 10773 10765 10757 10749 10740 10731 10722 10713 10705 10696 10687 10678 10669 10661 10653 10645 10638 10630 10623 10615 10607 10600 10591
10828 10832 10829 10834 10833 10832 10837 10833 10832 10828 10825 10820 10817 10813 10808 10803 10798 10794 10788 10782 10775 10768 10760 10752 10744 10735 10727 10718 10709 10700 10691 10682 10675 10666 10658 10651 10644 10636 10628 10622 10614 10607 10600 10593